Regional Weather Roundup
Issued by NWS Wakefield, VA

Home | Current Version | Previous Version | Graphics & Text | Print | Product List | Glossary On
Versions: 1 2 3 4 5 6 7 8 9 10 11 12 13 14 15 16 17 18 19 20 21 22 23 24 25 26 27 28 29 30 31 32 33 34 35 36 37 38 39 40 41 42 43 44 45 46 47 48 49 50
000
ASUS41 KAKQ 180810
RWRAKQ

REGIONAL WEATHER ROUNDUP
NATIONAL WEATHER SERVICE WAKEFIELD VA
300 AM EST THU DEC 18 2014

Note: "fair" indicates few or no clouds below 12,000 feet with no
significant weather and/or obstructions to visibility. * = Denotes
station may not report precipitation (e.g., rain,snow,etc.),
thunder or fog.

VAZ042-051-052>054-056-180900-
NORTHERN VIRGINIA

CITY           SKY/WX    TMP DP  RH WIND       PRES   REMARKS
WASH NATIONAL  MOCLDY    40  22  48 W7        30.11R
DULLES         MOCLDY    35  22  58 NW14      30.10R
FORT BELVOIR   MOCLDY    36  21  54 NW7       30.12R
QUANTICO       CLEAR     37  21  52 N7        30.13R
FREDERICKSBRG* CLEAR     37  26  65 N5        30.11R
STAFFORD*      CLEAR     31  23  70 N3        30.15S
WARRENTON      CLEAR     30  29  95 CALM      30.10S
CULPEPER*      CLEAR     28  25  86 CALM      30.11S
MANASSAS*      CLEAR     36  21  55 NW13G18   30.11R
LEESBURG*      CLOUDY    36  27  69 W8        30.11R
WINCHESTER     CLOUDY    36  18  48 NW7       30.11R
FRONT ROYAL*   PTSUNNY   32  23  69 NW3       30.09R
LURAY*         MOSUNNY   34  25  69 CALM      30.09R
$$

VAZ048-049-060>072-079>083-180900-
CENTRAL AND SOUTH CENTRAL VIRGINIA

CITY           SKY/WX    TMP DP  RH WIND       PRES   REMARKS
RICHMOND       PTCLDY    36  25  64 CALM      30.11R
CHESTERFIELD*  SUNNY     28  16  59 N3        30.11S
PETERSBURG*    CLEAR     30  29  97 CALM      30.11S
HANOVER        CLEAR     30  24  78 CALM      30.12R
TAPPAHANNOCK*  CLEAR     35  23  61 CALM      30.11R
QUINTON*       SUNNY     33  26  78 CALM      30.11R
CHARLOTTSVILLE CLEAR     29  21  72 S5        30.09R
GORDONSVILLE*  SUNNY     28  24  86 CALM      30.10R
ORANGE*        CLEAR     28  27  93 CALM      30.12R
LOUISA*        CLEAR     30  25  80 NW3       30.09R
BUMPASS*       SUNNY     31  27  83 NW3       30.10S
FARMVILLE*     CLEAR     34  25  70 CALM      30.10R
CREWE*         SUNNY     32  25  75 CALM      30.09R
FORT PICKETT*  SUNNY     34  25  69 N5        30.10R
CHASE CITY*    SUNNY     39  30  69 W3        30.10R
CLARKSVILLE*   SUNNY     37  28  70 CALM      30.10R
SOUTH HILL*    CLEAR     38  27  63 CALM      30.15R
LAWRENCEVILLE* SUNNY     35  30  85 CALM      30.10R
EMPORIA*       CLEAR     32  30  93 NW3       30.12R
$$

VAZ088>098-180900-
SOUTHEAST VIRGINIA

CITY           SKY/WX    TMP DP  RH WIND       PRES   REMARKS
NORFOLK        CLEAR     42  28  57 N12       30.09R
VIRGINIA BEACH CLEAR     42  31  64 N10       30.08R
NORFOLK NAVAL  CLEAR     43  28  55 N12       30.11R
WEST POINT*    CLEAR     34  28  77 CALM      30.12R
SALUDA*        FAIR      37  27  65 N7        30.10R
NEWPORT NEWS   CLEAR     41  27  57 N7        30.10R
LANGLEY AFB    CLEAR     38  28  66 N9        30.11R
FORT EUSTIS    CLEAR     39  26  59 N3        30.09R
WILLIAMSBURG*  CLEAR     39  28  65 N3        30.12R
HR EXEC AP*    SUNNY     37  28  70 N3        30.12R
FRANKLIN*      CLEAR     36  30  80 CALM      30.10R
WAKEFIELD      CLEAR     36  27  69 CALM      30.11R
$$

VAZ020-022-025-037-045-180900-
WEST CENTRAL AND SOUTHWEST VIRGINIA

CITY           SKY/WX    TMP DP  RH WIND       PRES   REMARKS
STAUNTON*      CLEAR     29  20  70 CALM      30.10R
WAYNESBORO*    SUNNY     27  21  77 CALM      30.07R
HOT SPRINGS VA MOCLDY    23  19  87 NW21G28   29.95S WCI   8
LYNCHBURG      CLEAR     30  24  78 CALM      30.11R
DANVILLE       CLEAR     39  25  57 N5        30.12R
SOUTH BOSTON*  SUNNY     38  24  56 W5        30.11R
MARTINSVILLE   CLEAR     27  27 100 CALM      30.14R
ROANOKE        CLEAR     36  21  54 NW13      30.12R
BLACKSBURG     PTCLDY    30  22  72 W12G20    30.12R WCI  20
DUBLIN*        CLEAR     32  26  77 W8        30.11S
MARION*        PTCLDY    32  25  75 W15       30.12R WCI  21
HILLSVILLE*    CLEAR     30  24  78 NW15      30.07R WCI  19
RICHLANDS*     CLOUDY    28  22  79 NW8       30.14R
WISE*          CLOUDY    30  28  93 NW5       30.16R
ABINGDON*      CLEAR     31  29  91 CALM      30.16S
$$

MDZ021>025-VAZ099-100-180900-
SOUTHERN MARYLAND AND THE DELMARVA PENINSULA

CITY           SKY/WX    TMP DP  RH WIND       PRES   REMARKS
PATUXENT RIVER CLEAR     38  21  50 NW17      30.07S
BAY BRIDGE APT   N/A     37  21  52 NW16G24   30.08R
LEONARDTOWN    CLEAR     36  21  55 MISG      30.10R
DOVER          CLOUDY    38  23  55 W13       30.01R
GEORGETOWN     MOCLDY    38  23  55 NW8       30.05R
EASTON         CLEAR     38  25  60 N12       30.11R
CAMBRIDGE      CLEAR     37  27  65 NW12G18   30.07R
SALISBURY      CLEAR     38  24  57 NW13      30.06R
OCEAN CITY     CLEAR     34  26  72 NW3       30.05R
WALLOPS ISLAND CLEAR     35  26  69 NW7       30.07R
ACCOMACK*      CLEAR     37  28  70 N8G16     30.07S
$$

NCZ012>017-030>032-180900-
NORTH CENTRAL AND EASTERN NORTH CAROLINA

CITY           SKY/WX    TMP DP  RH WIND       PRES   REMARKS
ROANOKE RAPIDS SUNNY     36  32  87 NW5       30.10R
RALEIGH        PTCLDY    40  27  59 CALM      30.11R
ELIZABETH CITY CLEAR     44  33  65 N6        30.08R
AHOSKIE*       CLEAR     32  31  96 CALM      30.10S
EDENTON*         N/A     42  32  69 NW6       30.08R
CURRITUCK*     CLEAR     42  33  69 N7        30.08R
KILL DEVIL HLS CLEAR     46  38  75 NW6       30.05R
MANTEO         CLEAR     46  38  75 NW7       30.06R
CAPE HATTERAS  MOCLDY    49  45  86 NW7       30.05R
TARBORO*       PTSUNNY   32  32  98 W3        30.11R
GOLDSBORO      MOCLDY    40  40  98 CALM      30.08R
WASHINGTON     MOCLDY    39  37  94 CALM      30.09R
GREENVILLE     MOCLDY    36  36 100 N3        30.11R FOG
NEW BERN       MOCLDY    45  39  79 W3        30.09R
WILMINGTON     CLEAR     39  36  89 CALM      30.09R
$$

VAZ048-180900-
ELSEWHERE

CITY           SKY/WX    TMP DP  RH WIND       PRES   REMARKS
HARRISBURG PA  MOCLDY    35  20  54 NW18      30.05S WCI  24
BALTIMORE      MOCLDY    37  20  50 W9G21     30.07R
ANNAPOLIS      PTCLDY    38  22  52 NW12      30.08R
ANDREWS AFB    MOCLDY    36  22  56 W6        30.08S
PHILADELPHIA   PTCLDY    37  22  54 W14       30.02R
HENDERSON NC   PTCLDY    39  25  58 NW6       30.10R
GREENSBORO     CLEAR     41  28  60 N8        30.09R
ROCKY MOUNT    MOCLDY    41  29  62 NW5       30.10R
$$

VAZ100-180900-
MARINE

STATION/POSITION TIME  TEMP    WIND        PRES    WAVE   SWELL
                       AIR SEA DIR/SP/G            HT/PER HT/PER
                 (UTC) (F)     (DEG/KT/KT) (MB)    (FT/S) (FT/S)
CAPE MAY NJ      0800   39 44  300/ 13/ 21 1016.1S
LEWES DE         0800   37 43  290/ 14/ 18 1017.0R
15NM E FENWICK I 0800   40 47              1016.1R   4/ 5
OCEAN-CITY-INLET 0800   37 46  310/  7/  9 1017.2R
WACHAPREAGUE VA  0800   39 46  340/  2/  8 1018.3R
THOMAS POINT MD  0800   38 43  310/ 15/ 18 1019.6R
GOOSES REEF MD   0800   39     VRB 14/ 17  1017.5F
COVE POINT MD    0800   38     340/ 18/ 24 1018.1R
SOLOMONS ISLAND  0800      44                N/A
BISHOPS HEAD MD  0800   38 43  330/ 16/ 20 1017.8S
PINEY POINT MD   0800          330/ 17/ 19   N/A
POTOMAC MD       0800   39     350/ 14/ 17 1017.8S
CAMBRIDGE MD     0800   39 42  300/ 14/ 18 1017.9F
LEWISETTA VA     0800   39 44  320/ 10/ 12 1018.6R
RAPPAHANNOCK LGT 0800          340/ 23/ 25 1019.0R
STINGRAY PT      0800   40     340/ 14/ 17 1019.3R
YORK RVR RNG VA  0800   41      10/ 17/ 21 1018.4R
YORKTOWN VA      0800   40 46  330/ 10/ 12 1018.9R
JAMESTOWN VA     0800   39     350/  4/  8   N/A
DOMINION TERM VA 0800   41     360/  6/  8 1019.2R
KIPTOPEKE VA     0800      51   10/  8/ 11   N/A
CHES BAY BRIDGE  0800   43 46  330/ 18/ 22 1018.3R
CAPE HENRY VA    0800   43     340/ 20/ 24 1017.4R
CHESAPEAKE LGHT  0700   44     360/ 20/ 22 1018.3R
WILLOUBY STN VA  0800   42     360/ 12/ 14 1019.4R
S CRANEY ISL VA  0800          360/ 13/ 16 1018.8R
CAPE HENRY BUOY  0800      47                N/A     3/ 4
1ST LANDING BUOY 0800   44     350/ 17/ 19 1018.2R
CAPE CHARLES BUO 0800      48                N/A     2/ 3   2/10
64NM E OF VA BCH 0800   50 54  350/ 19/ 21 1016.2R   3/ 8   2/ 8
DUCK PIER NC     0800   46 49  330/ 14/ 16 1016.8R
44100 DUCK FRF   0800      51                N/A     2/ 8
44056 DUCK FRF   0800      49                N/A     1/11
OREGON INLET NC  0800   47 51  290/  8/ 11 1017.5R
HATTERAS NC      0800   51 54  290/ 10/ 12 1017.9R
DIAMOND SHLS NC  0800   56                 1017.4R   3/ 5
CAPE LOOKOUT NC  0700   54     280/  9/ 10 1017.9R
$$


USA.gov is the U.S. government's official web portal to all federal, state and local government web resources and services.